Theta_e
320 318 316 314 314 314 315 314 314 315 315 315 316 314 315 316 317 316 315 314 314 315 314 314 318 318 317 314 316 316 311 312 313 313 312 312 310 312 313 311 311 312 313 314 312
319 317 315 314 314 315 315 313 314 316 315 315 314 314 314 316 316 315 314 315 315 315 314 313 316 317 316 314 316 312 310 312 310 311 311 311 310 311 311 310 310 311 314 313 312
318 315 314 314 314 315 314 313 314 315 315 314 314 313 314 316 316 314 314 315 315 315 313 312 316 316 314 313 313 312 311 310 312 313 313 310 310 312 308 308 313 313 315 314 313
317 314 314 314 315 315 314 313 314 315 314 315 315 315 316 316 314 314 316 316 315 315 313 313 314 316 311 311 312 312 311 311 312 312 312 310 312 310 310 313 315 314 314 313 314
318 315 314 314 315 315 314 312 314 315 315 317 316 316 316 316 315 316 317 318 318 318 314 312 315 315 313 311 310 309 309 311 312 311 310 310 309 308 309 315 315 315 315 315 316
319 315 314 315 315 315 314 313 314 315 315 317 316 316 317 314 316 317 318 318 318 317 316 313 313 315 313 310 310 310 309 309 312 311 310 308 308 308 312 315 315 315 316 316 316
319 315 314 315 315 314 314 314 315 315 316 317 316 316 317 316 316 317 319 318 318 317 317 315 316 316 314 310 311 309 308 306 310 311 309 306 308 306 315 315 313 314 315 315 315
319 315 314 314 314 314 314 314 316 315 316 317 316 316 317 316 317 317 316 316 316 314 314 315 313 312 311 311 309 309 308 310 310 309 312 311 314 312 314 313 313 313 314 314 314
318 314 314 314 314 314 315 315 315 316 315 318 315 317 316 317 318 316 315 316 314 313 313 313 311 310 309 308 308 307 312 310 309 311 309 312 313 312 313 312 311 312 312 312 313
316 314 313 313 314 314 313 314 316 316 317 318 315 315 317 316 316 315 314 314 314 313 313 313 310 307 306 309 314 312 310 310 310 310 309 309 310 311 313 313 313 313 313 313 313
316 313 312 312 313 312 312 311 311 313 314 314 313 315 317 316 315 314 313 313 315 312 310 309 309 311 310 310 310 309 309 309 311 311 309 310 311 312 313 313 313 311 313 311 308
315 313 311 311 311 309 307 306 307 309 313 314 315 317 316 315 314 314 314 315 314 311 309 309 309 311 309 309 310 310 309 311 311 310 311 310 311 311 311 311 311 311 309 308 305
314 312 311 309 310 308 306 305 306 312 312 312 315 316 314 314 312 313 313 313 309 310 310 312 309 310 310 311 311 310 310 310 310 310 310 308 309 307 307 308 309 309 308 306 304
314 312 311 307 307 306 305 304 306 313 306 310 315 315 314 312 311 312 312 313 311 312 310 308 309 311 311 310 309 312 309 308 308 309 306 307 308 306 307 307 308 305 303 304 300
313 311 309 307 305 304 304 303 308 309 318 312 315 313 314 311 310 312 312 310 310 310 309 307 309 309 309 309 309 310 307 307 307 304 305 306 306 309 306 307 307 300 299 299 299
312 308 305 305 306 304 303 304 311 311 318 310 314 311 308 309 311 313 310 309 308 306 305 305 307 307 308 308 307 307 305 305 305 303 308 306 305 307 306 306 301 299 298 299 299
309 306 304 303 304 303 303 309 309 316 311 309 312 310 309 308 309 307 308 304 308 309 309 307 308 307 308 305 304 306 305 307 302 302 306 303 302 301 304 305 300 297 298 297 300
306 301 302 302 303 303 303 303 311 313 309 308 311 309 307 306 308 306 306 301 305 307 307 307 304 306 303 305 307 304 306 304 306 301 299 299 301 302 298 298 297 297 296 297 299
302 300 300 302 302 302 307 303 312 306 305 311 307 305 310 309 305 303 304 305 299 300 307 306 305 304 302 303 302 301 306 302 299 296 297 299 300 298 296 295 296 296 296 297 297
300 298 299 301 301 303 301 304 305 301 311 311 306 304 305 309 304 305 304 302 301 298 300 302 302 302 300 299 301 295 295 298 296 294 294 295 294 294 294 295 295 295 295 294 294
298 298 301 302 305 311 301 300 303 307 310 310 308 305 307 306 304 305 302 297 297 296 296 297 299 299 295 296 293 293 294 293 293 294 291 292 292 294 294 295 294 295 293 293 294
297 298 302 306 307 305 304 304 309 310 309 306 307 307 304 302 302 303 304 297 296 295 293 295 294 294 293 294 293 293 292 293 293 292 292 294 294 295 294 294 294 293 292 292 292
298 299 302 309 303 303 308 309 308 306 306 305 305 302 299 299 300 300 299 294 294 293 293 294 295 291 292 293 292 292 293 293 293 294 294 293 293 294 294 293 292 292 292 291 292
299 302 305 310 307 304 307 306 308 304 304 302 300 297 297 297 297 297 297 294 294 294 295 295 296 295 291 292 292 292 293 293 293 294 293 293 293 293 292 291 291 291 291 291 291
298 304 304 310 307 307 306 304 305 304 303 299 297 297 297 296 295 295 294 293 293 294 294 293 293 292 292 292 292 293 293 293 293 293 293 292 291 290 290 290 290 291 291 291 291
301 302 302 304 304 307 306 304 304 303 302 301 299 296 295 296 296 295 293 293 293 293 293 293 292 292 292 293 292 292 292 292 292 291 289 289 290 290 290 290 291 291 291 291 291
299 302 303 302 301 305 305 304 305 304 301 299 297 294 294 294 294 294 293 293 293 293 293 292 293 287 286 291 291 287 289 289 289 289 289 289 290 290 290 291 291 291 291 291 291
Wind_Speed
15 15 17 19 22 25 26 27 28 30 30 30 27 29 23 19 6 11 12 8 8 9 8 7 9 13 11 3 3 2 4 2 4 3 6 5 4 5 12 14 12 14 25 29 30
15 17 19 20 22 24 25 26 27 29 29 29 30 29 27 13 6 12 11 9 10 12 10 10 10 13 6 4 2 4 3 8 6 4 6 7 5 13 6 12 14 22 27 23 24
16 19 20 21 22 25 25 25 28 29 26 30 32 31 22 8 4 8 9 9 11 11 10 9 8 8 4 5 3 1 5 4 6 14 13 6 6 9 3 9 25 23 30 31 30
17 19 20 21 22 24 24 25 27 28 28 32 36 27 11 7 3 7 10 11 11 11 9 8 7 4 3 3 2 4 9 7 10 5 5 4 7 7 12 31 36 39 37 37 31
17 19 20 21 23 24 24 25 25 26 28 34 33 16 10 7 6 5 6 11 13 8 8 7 5 6 2 4 5 3 6 11 20 27 24 21 19 13 18 35 23 28 26 27 31
17 18 20 22 23 23 24 24 26 27 25 35 29 14 6 6 3 2 11 15 9 7 7 5 3 7 5 3 2 4 14 23 25 27 10 5 7 2 10 18 22 23 28 36 37
16 19 21 23 24 24 24 24 27 26 25 34 25 9 9 6 2 9 11 11 13 12 9 7 6 3 4 4 5 6 7 9 6 6 6 6 5 8 21 21 26 42 33 33 34
17 19 22 23 23 24 24 24 26 23 27 31 17 4 4 5 6 9 9 9 10 13 11 9 7 2 1 8 5 5 2 6 7 7 4 12 19 9 24 30 41 35 35 40 43
17 19 21 22 23 24 24 25 25 20 30 26 6 1 2 4 6 11 13 8 9 11 7 7 5 3 2 3 5 7 7 8 11 7 3 1 26 22 35 23 30 31 35 40 45
19 20 21 23 24 24 24 25 24 16 32 19 3 2 3 5 5 10 14 9 8 11 4 7 5 3 4 6 3 7 7 6 10 6 3 14 23 21 39 29 30 31 32 36 39
19 20 21 23 23 23 26 29 27 7 30 9 16 4 4 9 2 13 18 8 12 13 4 6 5 4 5 3 3 4 4 14 19 12 5 8 26 29 33 36 28 18 27 31 28
19 20 21 22 22 18 23 18 13 10 13 9 3 2 3 9 3 14 16 7 9 5 6 7 5 3 1 2 2 4 8 12 16 8 9 5 32 32 23 18 22 24 26 28 37
20 20 20 20 20 18 20 19 17 15 5 6 3 3 3 7 4 9 13 7 5 3 2 2 10 1 2 2 1 4 6 6 7 21 19 7 19 29 31 24 26 13 28 31 37
20 20 19 18 11 19 14 18 18 14 4 4 2 2 4 7 1 11 11 8 3 3 3 6 3 1 3 4 4 3 0 7 9 6 16 9 13 36 21 11 10 17 23 24 32
19 18 17 15 15 15 16 16 16 4 5 4 2 1 4 5 8 6 11 5 1 5 2 8 5 5 5 4 0 6 7 5 6 22 16 16 5 3 12 8 7 15 29 24 36
19 18 15 14 14 12 15 13 9 5 6 3 3 6 6 6 6 9 7 6 2 2 1 7 6 2 4 4 5 5 9 20 10 2 5 4 5 10 11 12 14 24 33 39 38
19 18 15 13 12 12 11 9 4 3 2 3 2 4 2 4 4 6 5 6 3 7 4 5 5 2 7 6 5 12 6 6 5 3 12 7 18 16 7 2 4 18 25 33 22
20 18 15 14 12 9 4 5 4 5 6 3 3 3 4 3 1 5 3 4 6 3 3 4 6 1 3 4 2 5 3 2 6 11 26 22 9 5 18 24 37 35 47 48 32
20 19 17 15 12 8 4 2 7 7 1 2 4 4 2 3 1 3 2 2 3 4 2 6 6 5 10 2 1 5 3 7 6 12 9 7 14 16 10 23 27 36 41 34 44
20 16 18 17 14 8 3 7 6 4 4 3 8 5 5 3 2 2 1 3 4 5 3 1 10 2 2 4 4 6 6 5 2 4 6 16 31 11 22 25 18 29 30 44 43
17 6 9 10 10 8 4 8 5 5 6 6 4 4 5 4 2 3 2 2 2 2 7 1 2 8 3 1 11 4 4 4 4 4 5 9 15 12 24 18 29 24 39 39 32
14 2 8 12 4 3 4 5 2 4 5 4 3 7 6 6 5 4 5 3 5 1 3 1 2 5 11 16 3 8 5 3 1 10 11 15 23 16 14 26 35 33 40 42 47
7 10 10 17 5 4 3 3 3 4 4 4 5 3 2 6 3 6 5 9 7 4 5 3 3 5 9 3 0 4 8 11 11 12 16 13 14 12 28 23 38 38 41 49 46
8 3 8 16 6 4 4 4 4 5 5 3 3 4 4 4 2 5 4 7 2 7 6 6 3 6 7 13 9 14 20 21 10 9 15 19 30 27 27 27 29 42 48 50 49
17 6 8 5 7 6 5 3 4 5 3 5 1 5 7 6 3 5 2 2 2 3 7 3 4 6 9 13 13 15 20 21 17 19 19 27 27 29 27 29 33 45 50 50 55
14 8 9 5 5 8 11 9 13 4 7 3 5 5 6 6 6 6 6 4 4 3 3 1 4 6 10 15 10 16 19 20 18 13 17 22 28 26 40 49 40 46 55 56 59
32 18 11 9 6 6 6 9 14 11 4 9 8 6 4 5 5 4 8 8 5 5 4 3 0 3 6 8 14 6 5 11 17 14 13 20 28 28 29 35 45 51 60 57 53
Wind_Direction
24 19 15 13 13 14 12 6 4 358 355 354 353 352 355 354 29 81 62 42 12 357 341 335 339 337 339 1 3 68 67 254 244 222 254 247 260 279 285 264 260 243 259 283 287
16 12 10 9 9 8 8 4 2 358 356 355 349 345 347 2 105 61 32 15 355 346 342 346 343 342 347 350 8 75 120 225 203 212 251 285 260 295 282 275 266 269 287 295 292
10 8 7 5 4 5 8 3 1 358 356 351 346 341 345 23 129 30 20 5 351 349 349 349 348 345 348 337 355 139 212 233 262 259 276 261 277 284 234 286 283 283 304 305 301
4 4 3 2 3 4 6 2 360 357 358 352 348 347 3 26 80 25 16 20 11 357 354 359 338 1 19 343 310 302 247 253 280 258 286 262 278 257 239 270 290 294 297 297 298
360 359 357 358 1 2 4 1 358 356 356 352 348 1 3 75 71 41 37 355 339 342 2 2 3 0 359 305 302 218 287 299 287 289 277 273 258 256 256 290 303 310 304 302 307
351 352 352 354 358 359 0 0 355 354 349 349 346 359 46 75 53 14 336 339 9 26 356 1 350 323 284 245 210 270 286 291 299 303 299 190 270 230 281 313 314 309 305 303 302
343 347 348 351 352 354 357 358 351 348 347 346 342 3 70 92 13 339 5 28 32 17 359 349 328 315 319 312 309 297 308 319 305 327 310 310 256 235 301 306 303 301 304 308 307
338 344 345 344 345 351 354 354 350 343 349 345 341 354 119 64 39 25 24 30 31 16 347 345 335 314 213 307 332 344 27 348 298 350 342 6 295 283 298 321 301 307 311 315 319
335 341 339 336 344 349 350 350 349 341 349 343 337 2 111 49 35 24 9 358 18 8 5 6 356 49 40 43 3 9 306 308 319 324 325 179 296 297 303 300 291 310 317 322 332
332 334 333 337 345 347 347 350 351 350 346 343 346 356 54 348 13 19 354 345 6 19 359 16 20 48 30 52 321 297 310 275 290 297 13 299 286 297 306 313 311 317 324 334 337
324 327 332 337 343 345 346 354 5 350 344 337 302 269 332 357 106 15 1 1 16 6 19 5 32 287 262 193 199 269 261 288 300 303 329 321 301 299 305 309 318 331 332 346 31
315 322 331 338 342 346 351 14 11 320 304 333 327 325 356 357 336 358 2 29 18 338 345 4 295 248 248 233 175 268 295 286 294 302 331 343 292 291 295 304 313 332 17 21 10
310 321 331 337 339 345 349 357 349 342 290 310 328 343 352 343 350 332 14 35 49 343 331 252 260 315 184 279 235 232 241 285 275 320 307 271 288 293 300 314 315 54 25 14 14
309 321 329 334 339 340 340 341 339 341 50 284 293 301 337 334 27 22 20 16 351 296 301 245 299 323 316 297 243 263 141 274 297 340 302 3 288 289 309 308 311 70 18 12 15
306 316 319 323 328 331 329 333 333 338 357 275 286 316 345 357 340 12 18 9 252 265 83 258 316 311 310 275 197 249 338 298 272 298 298 290 234 294 331 319 6 2 359 23 3
301 306 305 310 317 324 324 326 327 30 261 311 334 358 6 11 11 327 4 36 344 349 280 251 284 237 191 54 96 317 348 315 303 275 279 250 358 293 320 347 7 354 356 1 348
297 295 291 297 309 316 318 327 12 167 334 290 317 23 30 305 343 37 16 27 33 351 337 328 277 98 52 28 351 11 336 325 334 354 271 344 318 295 341 161 313 349 349 341 347
293 286 282 283 290 294 291 41 205 231 239 34 2 316 241 6 355 358 43 21 36 31 292 340 320 22 29 68 337 280 114 186 303 299 290 307 258 247 346 344 345 348 346 341 343
289 279 277 276 273 271 167 129 224 214 207 351 325 265 251 240 347 44 107 112 48 354 40 342 254 334 65 30 28 329 67 185 243 259 279 259 275 308 356 332 335 344 338 337 337
283 274 270 263 258 222 110 230 240 200 138 139 192 202 234 223 7 47 287 20 120 43 303 16 296 56 353 24 53 59 331 10 14 298 277 287 296 300 337 320 334 331 330 324 319
273 273 248 234 198 173 196 224 249 233 197 178 234 253 220 202 172 205 234 41 64 79 58 169 189 282 46 53 305 15 52 15 285 228 278 301 289 0 309 312 330 313 320 317 317
244 239 228 194 164 212 196 207 215 205 216 250 211 214 195 169 191 224 218 79 123 173 96 217 244 270 286 285 150 125 152 141 222 283 281 276 273 289 312 316 311 315 313 315 311
224 231 210 189 211 223 230 241 235 185 216 211 217 190 136 179 205 189 143 148 125 138 150 190 229 316 321 111 166 39 310 290 279 263 268 276 281 314 303 307 311 311 310 310 306
224 239 195 203 230 177 169 223 227 198 232 184 151 128 128 192 343 186 173 210 243 185 216 193 225 216 245 280 306 300 302 300 297 288 286 280 294 302 304 308 311 311 311 306 305
203 229 201 193 221 179 138 147 253 212 229 210 184 203 177 180 188 202 135 25 225 256 169 173 254 246 266 271 275 272 272 279 280 277 278 289 294 298 304 308 311 308 306 306 306
206 188 170 159 134 181 181 199 203 227 182 218 226 193 192 191 197 176 146 174 231 130 128 156 280 312 284 264 260 285 279 278 276 284 288 291 294 305 310 308 312 312 308 306 303
211 211 189 166 170 173 198 193 199 197 233 209 204 139 193 218 188 229 210 194 196 175 166 202 239 18 272 316 316 309 244 312 299 291 275 300 300 309 307 310 313 313 309 304 304